Weather reports worldwide

Advertisment
Tampico, Mexico (76548): temperature & dewpoint: 14.06.2018 04:00:00 - 20.06.2018 04:00:00 (CDT)Tampico, Mexico (76548): wind speed: 14.06.2018 04:00:00 - 20.06.2018 04:00:00 (CDT)Tampico, Mexico (76548): wind direction: 14.06.2018 04:00:00 - 20.06.2018 04:00:00 (CDT)Tampico, Mexico (76548): reduced air pressure: 14.06.2018 04:00:00 - 20.06.2018 04:00:00 (CDT)Tampico, Mexico (76548): visibility: 14.06.2018 04:00:00 - 20.06.2018 04:00:00 (CDT)
Date & Time tt [°C] td [°C] ff [km/h] ff [kn] dd ppp [hPa] vv [km]
20.06.2018 04:00:00 26,6 24,2 7 4 SSW 1009,5 10
20.06.2018 03:00:00 - - - - - - -
20.06.2018 02:00:00 - - - - - - -
20.06.2018 01:00:00 27,2 25,6 7 4 SE 1010,3 10
20.06.2018 00:00:00 - - - - - - -
19.06.2018 23:00:00 - - - - - - -
19.06.2018 22:00:00 28,0 25,3 11 6 ESE 1009,9 10
19.06.2018 21:00:00 - - - - - - -
19.06.2018 20:00:00 - - - - - - -
19.06.2018 19:00:00 30,0 24,6 11 6 E 1008,2 22
19.06.2018 18:00:00 - - - - - - -
19.06.2018 17:00:00 - - - - - - -
19.06.2018 16:00:00 34,2 23,7 11 6 ESE 1008,5 22
19.06.2018 15:00:00 - - - - - - -
19.06.2018 14:00:00 - - - - - - -
19.06.2018 13:00:00 30,2 23,4 4 2 SSW 1010,7 22
19.06.2018 12:00:00 - - - - - - -
19.06.2018 11:00:00 - - - - - - -
19.06.2018 10:00:00 27,0 23,4 4 2 SSE 1011,3 22
19.06.2018 09:00:00 - - - - - - -
19.06.2018 08:00:00 - - - - - - -
19.06.2018 07:00:00 25,8 24,2 4 2 SE 1010,3 12
19.06.2018 06:00:00 - - - - - - -
19.06.2018 05:00:00 - - - - - - -
19.06.2018 04:00:00 26,8 24,6 7 4 SSW 1009,6 10
19.06.2018 03:00:00 - - - - - - -
19.06.2018 02:00:00 - - - - - - -
19.06.2018 01:00:00 27,6 24,9 11 6 S 1011,6 10
19.06.2018 00:00:00 - - - - - - -
18.06.2018 23:00:00 - - - - - - -
18.06.2018 22:00:00 28,0 24,8 11 6 ESE 1010,8 10
18.06.2018 21:00:00 - - - - - - -
18.06.2018 20:00:00 - - - - - - -
18.06.2018 19:00:00 30,2 24,2 14 8 ENE 1008,9 24
18.06.2018 18:00:00 - - - - - - -
18.06.2018 17:00:00 - - - - - - -
18.06.2018 16:00:00 33,0 25,0 14 8 E 1009,4 24
18.06.2018 15:00:00 - - - - - - -
18.06.2018 14:00:00 - - - - - - -
18.06.2018 13:00:00 33,2 24,3 4 2 SW 1011,1 24
18.06.2018 12:00:00 - - - - - - -
18.06.2018 11:00:00 - - - - - - -
18.06.2018 10:00:00 29,4 24,0 7 4 SSE 1012,0 20
18.06.2018 09:00:00 - - - - - - -
18.06.2018 08:00:00 - - - - - - -
18.06.2018 07:00:00 27,0 24,6 4 2 SE 1011,1 15
18.06.2018 06:00:00 - - - - - - -
18.06.2018 05:00:00 - - - - - - -
18.06.2018 04:00:00 26,8 24,4 4 2 SSE 1010,7 10
18.06.2018 03:00:00 - - - - - - -
18.06.2018 02:00:00 - - - - - - -
18.06.2018 01:00:00 27,4 24,1 7 4 ESE 1012,2 10
18.06.2018 00:00:00 - - - - - - -
17.06.2018 23:00:00 - - - - - - -
17.06.2018 22:00:00 28,2 25,8 14 8 E 1011,8 10
17.06.2018 21:00:00 - - - - - - -
17.06.2018 20:00:00 - - - - - - -
17.06.2018 19:00:00 30,4 25,3 18 10 E 1009,0 24
17.06.2018 18:00:00 - - - - - - -
17.06.2018 17:00:00 - - - - - - -
17.06.2018 16:00:00 32,0 24,5 18 10 E 1009,6 24
17.06.2018 15:00:00 - - - - - - -
17.06.2018 14:00:00 - - - - - - -
17.06.2018 13:00:00 32,8 25,1 7 4 E 1011,0 24
17.06.2018 12:00:00 - - - - - - -
17.06.2018 11:00:00 - - - - - - -
17.06.2018 10:00:00 29,6 23,6 4 2 S 1011,5 22
17.06.2018 09:00:00 - - - - - - -
17.06.2018 08:00:00 - - - - - - -
17.06.2018 07:00:00 26,2 25,7 4 2 NE 1010,4 15
17.06.2018 06:00:00 - - - - - - -
17.06.2018 05:00:00 - - - - - - -
17.06.2018 04:00:00 26,6 25,2 4 2 E 1010,3 10
17.06.2018 03:00:00 - - - - - - -
17.06.2018 02:00:00 - - - - - - -
17.06.2018 01:00:00 27,2 24,8 7 4 SE 1012,0 10
17.06.2018 00:00:00 - - - - - - -
16.06.2018 23:00:00 - - - - - - -
16.06.2018 22:00:00 27,2 24,2 11 6 E 1010,5 10
16.06.2018 21:00:00 - - - - - - -
16.06.2018 20:00:00 - - - - - - -
16.06.2018 19:00:00 30,4 24,5 18 10 E 1008,6 22
16.06.2018 18:00:00 - - - - - - -
16.06.2018 17:00:00 - - - - - - -
16.06.2018 16:00:00 33,0 23,5 14 8 E 1009,3 22
16.06.2018 15:00:00 - - - - - - -
16.06.2018 14:00:00 - - - - - - -
16.06.2018 13:00:00 30,8 23,7 4 2 ESE 1011,0 22
16.06.2018 12:00:00 - - - - - - -
16.06.2018 11:00:00 - - - - - - -
16.06.2018 10:00:00 27,6 22,9 4 2 SW 1011,7 22
16.06.2018 09:00:00 - - - - - - -
16.06.2018 08:00:00 - - - - - - -
16.06.2018 07:00:00 24,8 23,1 4 2 NE 1010,8 10
16.06.2018 06:00:00 - - - - - - -
16.06.2018 05:00:00 - - - - - - -
16.06.2018 04:00:00 26,2 24,3 4 2 SSE 1011,2 10
16.06.2018 03:00:00 - - - - - - -
16.06.2018 02:00:00 - - - - - - -
16.06.2018 01:00:00 26,6 23,9 11 6 ESE 1012,5 10
16.06.2018 00:00:00 - - - - - - -
15.06.2018 23:00:00 - - - - - - -
15.06.2018 22:00:00 27,0 23,7 11 6 E 1011,4 12
15.06.2018 21:00:00 - - - - - - -
15.06.2018 20:00:00 - - - - - - -
15.06.2018 19:00:00 30,8 23,1 14 8 E 1009,1 24
15.06.2018 18:00:00 - - - - - - -
15.06.2018 17:00:00 - - - - - - -
15.06.2018 16:00:00 33,4 24,3 11 6 E 1010,2 24
15.06.2018 15:00:00 - - - - - - -
15.06.2018 14:00:00 - - - - - - -
15.06.2018 13:00:00 33,0 21,9 7 4 SW 1012,0 24
15.06.2018 12:00:00 - - - - - - -
15.06.2018 11:00:00 - - - - - - -
15.06.2018 10:00:00 28,8 22,4 7 4 N 1013,4 24
15.06.2018 09:00:00 - - - - - - -
15.06.2018 08:00:00 - - - - - - -
15.06.2018 07:00:00 24,6 24,1 4 2 NNW 1012,6 10
15.06.2018 06:00:00 - - - - - - -
15.06.2018 05:00:00 - - - - - - -
15.06.2018 04:00:00 25,4 23,8 4 2 NW 1013,0 10
15.06.2018 03:00:00 - - - - - - -
15.06.2018 02:00:00 - - - - - - -
15.06.2018 01:00:00 26,0 24,1 4 2 NNW 1014,5 10
15.06.2018 00:00:00 - - - - - - -
14.06.2018 23:00:00 - - - - - - -
14.06.2018 22:00:00 26,6 24,4 7 4 NE 1013,6 10
14.06.2018 21:00:00 - - - - - - -
14.06.2018 20:00:00 - - - - - - -
14.06.2018 19:00:00 29,2 23,2 11 6 ENE 1012,2 22
14.06.2018 18:00:00 - - - - - - -
14.06.2018 17:00:00 - - - - - - -
14.06.2018 16:00:00 33,0 23,2 7 4 W 1013,0 22
14.06.2018 15:00:00 - - - - - - -
14.06.2018 14:00:00 - - - - - - -
14.06.2018 13:00:00 28,2 20,8 4 2 N 1016,1 22
14.06.2018 12:00:00 - - - - - - -
14.06.2018 11:00:00 - - - - - - -
14.06.2018 10:00:00 25,6 21,4 4 2 E 1016,3 24
14.06.2018 09:00:00 - - - - - - -
14.06.2018 08:00:00 - - - - - - -
14.06.2018 07:00:00 23,6 22,8 7 4 NE 1015,5 10
14.06.2018 06:00:00 - - - - - - -
14.06.2018 05:00:00 - - - - - - -
14.06.2018 04:00:00 24,2 21,7 14 8 E 1015,5 10

tt = temperature
td = dewpoint
ff = wind speed
dd = wind direction
ppp = reduced air pressure
vv = visibility

Next stations